Location: *
(33.3200°N, 8.3381°W)
Time: 14:01:00
(UTC+00:00)

Cosmos 1758 Rocket - Pass Details

Date: 09 April 2020
Orbit: 603 x 635 km, 82.5° (Epoch: 05 June)

Event Time Altitude Azimuth Distance (km) Brightness Sun altitude
Rises 19:21:11 0° 4° (N) 2,864 7.1 -5.2°
Reaches altitude 10° 19:23:35 10° 14° (NNE) 1,954 6.1 -5.7°
Maximum altitude 19:27:31 34° 79° (E) 1,005 4.2 -6.5°
Drops below altitude 10° 19:31:24 10° 145° (SE) 1,940 5.7 -7.3°
Sets 19:33:46 0° 155° (SSE) 2,840 6.6 -7.7°
